Regional Weather Roundup
Issued by NWS Midland/Odessa, TX

Home | Current Version | Previous Version | Text Only | Print | Product List | Glossary On
Versions: 1 2 3 4 5 6 7 8 9 10 11 12 13 14 15 16 17 18 19 20 21 22 23 24 25 26 27 28 29 30 31 32 33 34 35 36 37 38 39 40 41 42 43 44 45 46 47 48 49 50
000
ASUS44 KMAF 200610
RWRMAF
MIDLAND AREA WEATHER ROUNDUP
NATIONAL WEATHER SERVICE MIDLAND TX
1200 AM CST MON FEB 20 2017

...IN SOUTHWEST TEXAS AND SOUTHEAST NEW MEXICO...

CITY           SKY/WX    TMP DP  RH WIND       PRES   REMARKS
ALPINE         CLEAR     47  22  37 W9        30.04R
ANDREWS        FAIR      53  28  37 W13       29.92R
ARTESIA        CLEAR     46  30  53 W13       29.91F
BIG SPRING     CLOUDY    53  48  82 S6        29.92S
CARLSBAD       CLEAR     50  30  46 W12       29.90F
DRYDEN           N/A     55  49  80 SW14      29.92R
FORT STOCKTON  PTCLDY    52  26  36 NW12      29.92F
GUAD PASS      CLEAR     42  28  57 SW20      30.00R WCI  33
HOBBS          CLEAR     45  27  49 W5        29.92R
MARFA          CLEAR     42  22  44 S5        30.03R WCI  39
MIDLAND AIRPK  MOCLDY    56  38  50 W9        29.92R
MIDLAND INTL   CLOUDY    52  40  63 W8        29.91R
ODESSA         MOCLDY    50  35  56 W7        29.93R
PECOS          CLEAR     47  27  44 W8        29.93S
PRESIDIO       FAIR      54  35  48 N6        30.02R
SEMINOLE       PTCLDY    50  28  42 W10       29.91R
SNYDER         MOCLDY    54  46  75 S6        29.92R
WINK           CLEAR     50  27  40 W10       29.91F
$$
...OTHER STATIONS IN TEXAS...

CITY           SKY/WX    TMP DP  RH WIND       PRES   REMARKS
ABILENE        LGT RAIN  55  52  89 SE17      29.90F
AMARILLO       PTCLDY    51  31  46 SW20G26   29.79F
AUSTIN         TSTM      61  59  93 W37G58    29.98R SQUALL  VSB 1/2
BROWNSVILLE    CLOUDY    76  72  87 S22G30    29.81R
CORPUS CHRISTI LGT RAIN  73  73 100 S7        29.87S FOG
DALLAS FTW     CLOUDY    71  65  81 S16       29.85S
DEL RIO        CLOUDY    59  55  87 CALM      29.91R
EL PASO        PTCLDY    51  32  48 W16G29    30.01S
HOUSTON INT    CLOUDY    70  68  93 SE13      29.91R FOG
LUBBOCK        CLOUDY    53  34  48 W14       29.83S
SAN ANGELO     CLOUDY    55  52  89 S5        29.93R
SAN ANTONIO    TSTM      59  56  89 N17       29.94F FOG
WACO           CLOUDY    70  66  87 SE20G28   29.87S THUNDER
WICHITA FALLS  NOT AVBL
$$
...OTHER LOCATIONS IN NEW MEXICO...

CITY           SKY/WX    TMP DP  RH WIND       PRES   REMARKS
ALAMAGORDO     CLEAR     45  30  57 N6        30.02F
ALBUQUERQUE    CLOUDY    43  32  65 SW8       30.00S WCI  38
CANNON AFB     CLOUDY    43  30  59 W13       29.84F WCI  37
CLOVIS         PTCLDY    45  28  53 W13       29.84F WCI  38
HOLLOMAN AFB   PTCLDY    46  33  61 NW7       30.04F
ROSWELL        CLEAR     38  27  64 W6          N/A  WCI  33
RUIDOSO        CLEAR     32  30  93 NW10G17   29.99F WCI  24
SANTA FE       CLOUDY    34  30  85 SW7       29.97R WCI  28
TRUTH OR CONSE PTCLDY    42  31  64 CALM      30.03S
TUCUMCARI      CLEAR     48  32  53 W22G35    29.81F
$$



USA.gov is the U.S. government's official web portal to all federal, state and local government web resources and services.